Location: Stoke Bliss
(52.2667°N, 2.5167°W)
Time: 00:38:55
(UTC+00:00)

N. Korean satellite - Visible Passes

Search period start: 02 December 2021 00:00
Search period end: 12 December 2021 00:00
Orbit: 447 x 495 km, 97.3° (Epoch: 01 December)

Date Brightness Start Highest point End Pass type
(mag) Time Alt. Az. Time Alt. Az. Time Alt. Az.
02 Dec 6.2 05:46:55 10° N 05:50:20 75° WNW 05:53:42 10° SSW visible
03 Dec 7.3 05:18:29 10° NNE 05:21:49 49° E 05:25:05 10° S visible
03 Dec 8.0 06:52:32 10° NNW 06:54:41 16° WNW 06:56:48 10° W visible
03 Dec 9.6 17:32:08 10° SW 17:34:32 17° W 17:36:56 10° NW visible
04 Dec 8.8 04:50:20 10° NE 04:53:09 23° E 04:55:55 10° SSE visible
04 Dec 7.2 06:23:23 10° N 06:26:22 29° WNW 06:29:20 10° SW visible
04 Dec 8.5 17:02:36 10° SSW 17:05:49 33° W 17:09:02 10° NNW visible
05 Dec 9.8 04:22:58 10° ENE 04:24:22 12° E 04:25:45 10° ESE visible
05 Dec 6.3 05:54:36 10° N 05:57:58 60° WNW 06:01:17 10° SSW visible
05 Dec 6.9 16:33:42 10° S 16:37:12 71° WSW 16:40:41 10° NNW visible
06 Dec 6.9 05:26:02 10° NNE 05:29:25 61° ESE 05:32:45 10° S visible
06 Dec 8.2 07:00:26 10° NNW 07:02:11 14° WNW 07:03:56 10° W visible
06 Dec 9.7 17:40:13 10° SW 17:42:11 14° W 17:44:09 10° NW visible
07 Dec 8.4 04:57:45 10° NE 05:00:45 28° E 05:03:43 10° SSE visible
07 Dec 7.4 06:31:04 10° N 06:33:53 24° WNW 06:36:41 10° WSW visible
07 Dec 8.9 17:10:22 10° SSW 17:13:25 27° W 17:16:26 10° NW visible
08 Dec 9.6 04:30:01 10° NE 04:31:58 14° E 04:33:54 10° SE visible
08 Dec 6.5 06:02:09 10° N 06:05:27 49° WNW 06:08:43 10° SSW visible
08 Dec 7.3 16:41:17 10° S 16:44:44 57° WSW 16:48:09 10° NNW visible
09 Dec 6.5 05:33:30 10° NNE 05:36:54 75° ESE 05:40:17 10° S visible
09 Dec 8.3 07:08:21 10° NW 07:09:35 12° WNW 07:10:49 10° W visible
09 Dec 9.9 17:48:23 10° WSW 17:49:44 12° W 17:51:05 10° WNW visible
10 Dec 8.3 05:05:06 10° NNE 05:09:27 25° SE 05:11:21 10° SSE visible
10 Dec 7.7 06:38:39 10° NNW 06:41:16 21° WNW 06:43:52 10° WSW visible
10 Dec 9.2 17:18:05 10° SSW 17:20:54 23° W 17:23:42 10° NW visible
11 Dec 9.5 04:37:07 10° NE 04:41:24 12° SE 04:41:46 10° SE visible
11 Dec 7.5 06:09:37 10° N 06:15:31 13° SW 06:16:02 10° SW visible
11 Dec 7.7 16:48:48 10° S 16:52:09 46° W 16:55:29 10° NNW visible
